SAST,Max TemperatureF,Mean TemperatureF,Min TemperatureF,Max Dew PointF,MeanDew PointF,Min DewpointF,Max Humidity, Mean Humidity, Min Humidity, Max Sea Level PressureIn, Mean Sea Level PressureIn, Min Sea Level PressureIn, Max VisibilityMiles, Mean VisibilityMiles, Min VisibilityMiles, Max Wind SpeedMPH, Mean Wind SpeedMPH, Max Gust SpeedMPH,PrecipitationIn, CloudCover, Events, WindDirDegrees
2013-12-1,69,61,53,54,52,50,88,69,47,30.17,30.12,30.06,12,8,6,21,10,32,0.00,3,,104
2013-12-2,79,65,51,59,54,48,88,64,29,30.09,30.00,29.92,12,10,6,12,4,,0.08,6,Rain,233
2013-12-3,85,74,63,61,59,57,88,72,30,30.06,29.94,29.87,19,8,6,21,8,,0.08,5,Rain-Thunderstorm,258
2013-12-4,75,66,58,59,54,48,83,69,33,30.27,30.11,30.04,19,8,5,21,14,,0.01,5,Rain,254
2013-12-5,67,62,55,52,49,45,82,64,37,30.27,30.23,30.18,12,7,6,13,6,,0.00,5,Rain,247
2013-12-6,71,62,52,57,53,48,88,72,46,30.25,30.22,30.21,12,8,6,17,7,,0.00,4,,112
2013-12-7,67,60,54,55,53,50,88,73,51,30.21,30.12,30.01,12,7,6,22,11,31,0.00,1,,105
2013-12-8,69,61,53,59,55,52,94,78,56,30.06,30.03,29.98,12,8,6,18,7,,0.00,3,,121
2013-12-9,68,64,60,61,59,57,94,86,71,30.05,30.01,29.98,12,6,3,18,7,,0.00,7,Rain,114
2013-12-10,64,62,59,63,60,57,94,90,82,30.04,30.00,29.98,12,4,0,20,10,,0.28,6,Fog-Rain,111
2013-12-11,72,64,56,61,58,55,94,79,59,30.04,30.02,29.98,19,6,0,20,6,,0.00,2,Fog,108
2013-12-12,74,64,54,59,57,53,94,73,49,30.04,29.95,29.89,12,8,6,17,6,,0.00,1,,88
2013-12-13,75,66,58,64,59,55,88,79,53,29.95,29.85,29.80,12,8,6,13,5,,0.00,3,,244
2013-12-14,73,66,59,63,60,55,88,77,53,29.93,29.89,29.83,12,7,6,14,6,,0.00,3,,245
2013-12-15,76,69,62,61,59,54,88,75,53,30.04,29.90,29.86,12,7,4,21,7,,0.02,5,Rain,254
2013-12-16,70,64,59,59,57,55,94,77,58,30.09,30.06,30.01,12,8,6,13,8,,0.00,5,Rain,130
2013-12-17,71,63,55,59,56,54,94,74,48,30.15,30.08,30.04,12,8,6,12,5,,0.00,3,,134
2013-12-18,72,62,53,59,56,50,88,72,51,30.15,30.08,30.01,19,8,6,20,7,,0.00,2,,91
2013-12-19,76,65,54,61,57,52,94,74,48,30.01,29.95,29.92,19,10,6,12,5,,0.00,2,,137
2013-12-20,80,70,61,64,62,59,88,70,54,29.92,29.83,29.76,19,7,3,9,5,,0.00,3,,213
2013-12-21,76,70,64,66,63,59,88,75,55,30.12,30.03,29.95,12,7,4,12,8,,0.00,5,,193
2013-12-22,76,68,61,63,62,59,94,77,52,30.10,30.05,29.98,19,8,6,13,5,,0.00,4,,124
2013-12-23,76,70,64,64,62,60,94,79,55,30.04,30.02,30.00,19,7,4,14,5,,0.00,4,,143
2013-12-24,76,68,59,66,63,57,94,81,62,30.01,29.93,29.87,12,7,6,13,5,,0.00,5,,137
2013-12-25,78,72,67,68,66,64,94,80,61,29.98,29.89,29.77,12,7,4,13,7,,0.01,5,Rain,120
2013-12-26,76,70,64,66,62,55,94,76,41,30.06,30.01,29.94,12,7,4,14,7,,0.00,4,,200
2013-12-27,84,71,58,64,61,55,94,70,37,30.04,29.86,29.71,12,8,5,10,5,,0.00,2,,219
2013-12-28,77,70,62,61,57,52,83,66,41,30.12,29.94,29.83,12,8,6,21,7,,0.00,4,,252
2013-12-29,77,69,61,63,57,54,88,64,46,30.12,30.02,29.90,12,8,6,22,9,30,0.00,3,,94
2013-12-30,81,70,59,64,60,54,94,72,38,30.06,29.96,29.92,12,8,4,14,6,,0.00,2,,257
2013-12-31,76,68,59,66,61,57,94,77,54,30.06,30.02,29.95,12,7,6,16,7,,0.00,3,,133